Regional Weather Roundup
Issued by NWS Sioux Falls, SD

Home | Current Version | Previous Version | Text Only | Print | Product List | Glossary Off
Versions: 1 2 3 4 5 6 7 8 9 10 11 12 13 14 15 16 17 18 19 20 21 22 23 24 25 26 27 28 29 30 31 32 33 34 35 36 37 38 39 40 41 42 43 44 45 46 47 48 49 50

000
ASUS43 KFSD 181902
RWRFSD

WEATHER ROUNDUP FOR SE SOUTH DAKOTA/SW MINNESOTA/NW IOWA
NATIONAL WEATHER SERVICE SIOUX FALLS SD
200 PM CDT THU SEP 18 2014

NOTE: "FAIR" INDICATES FEW OR NO CLOUDS BELOW 12,000 FEET WITH NO
SIGNIFICANT WEATHER AND OR OBSTRUCTIONS TO VISIBILITY.


SDZ038>040-050-052>070-182000-
SOUTHEAST SOUTH DAKOTA

CITY           SKY/WX    TMP DP  RH WIND       PRES   REMARKS
CHAMBERLAIN    SUNNY     74  60  60 S20G28    29.89F
HURON          MOSUNNY   77  61  57 S18G29    29.90F
MADISON        FAIR      73  55  53 S17G24    29.98S
MITCHELL       PTSUNNY   75  61  61 S17G26    29.93F
SIOUX FALLS    MOSUNNY   76  54  46 S18G25    29.98F
WINNER         FAIR      80  57  45 S26       29.88F
YANKTON        MOSUNNY   73  55  53 S18       29.97F
$$

MNZ071-072-080-081-089-090-097-098-182000-
SOUTHWEST MINNESOTA

CITY           SKY/WX    TMP DP  RH WIND       PRES   REMARKS
FAIRMONT       MOSUNNY   72  50  46 SE10      30.04F
JACKSON        SUNNY     73  52  46 SE10G17   30.04F
LUVERNE        SUNNY     75  52  43 S14       30.00F
MARSHALL       MOSUNNY   75  54  46 S18G24    29.98F
MONTEVIDEO     MOSUNNY   77  61  57 SW13      29.98F
PIPESTONE      MOSUNNY   73  54  49 S12G22    30.00F
REDWOOD FALLS  MOSUNNY   76  54  46 S17G25    30.00F
TRACY          SUNNY     75  56  51 S14       30.01F
WINDOM         SUNNY     73  48  40 S13       30.02F
WORTHINGTON    SUNNY     72  52  49 SE13G18   30.03F
$$

IAZ001>003-012>014-020>022-031-032-NEZ013-014-SDZ071-182000-
NORTHWEST IOWA

CITY           SKY/WX    TMP DP  RH WIND       PRES   REMARKS
CHEROKEE       SUNNY     73  53  50 S13       30.02F
DENISON        SUNNY     72  57  60 SE9       30.02F
ESTHERVILLE    SUNNY     71  53  52 SE14G22   30.04F
LE MARS        SUNNY     73  55  53 SE13      30.01F
ORANGE CITY    SUNNY     75  52  43 S15       30.01F
SHELDON        SUNNY     73  55  53 SE14G21   30.01F
SIOUX CITY     SUNNY     74  57  55 SE9       30.01F
SPENCER        SUNNY     72  55  55 SE12      30.03F
STORM LAKE     SUNNY     70  57  64 S13       30.04F
$$

ABBREVIATIONS USED IN REMARKS
   TC - TEMPERATURE IN CELSIUS
  WCI - WIND CHILL INDEX
   HX - HEAT INDEX
  VSB - VISIBILITY




USA.gov is the U.S. government's official web portal to all federal, state and local government web resources and services.